owner,sensor,date,latitude,longitude,vertical_datum,sea_water_practical_salinity,qcFlag 
DISL,ioos:station:DISL:PPTA:1,2013-08-01T00:00:00Z,30.2791,-87.5561,1.152,17.62,1111122 
DISL,ioos:station:DISL:PPTA:1,2013-08-01T00:30:00Z,30.2791,-87.5561,1.135,17.75,1111122 
DISL,ioos:station:DISL:PPTA:1,2013-08-01T01:00:00Z,30.2791,-87.5561,1.136,17.56,1111122 
DISL,ioos:station:DISL:PPTA:1,2013-08-01T01:30:00Z,30.2791,-87.5561,1.143,16.37,1111122 
DISL,ioos:station:DISL:PPTA:1,2013-08-01T02:00:00Z,30.2791,-87.5561,1.148,18.54,1111122 
DISL,ioos:station:DISL:PPTA:1,2013-08-01T02:30:00Z,30.2791,-87.5561,1.165,18.33,1111122 
DISL,ioos:station:DISL:PPTA:1,2013-08-01T03:00:00Z,30.2791,-87.5561,1.15,19.75,1111122 
DISL,ioos:station:DISL:PPTA:1,2013-08-01T03:30:00Z,30.2791,-87.5561,1.139,23.24,1111122 
DISL,ioos:station:DISL:PPTA:1,2013-08-01T04:00:00Z,30.2791,-87.5561,1.152,29.93,1111122 
DISL,ioos:station:DISL:PPTA:1,2013-08-01T04:30:00Z,30.2791,-87.5561,1.179,31.68,1111122 
DISL,ioos:station:DISL:PPTA:1,2013-08-01T05:00:00Z,30.2791,-87.5561,1.196,31.15,1111122 
DISL,ioos:station:DISL:PPTA:1,2013-08-01T05:30:00Z,30.2791,-87.5561,1.212,31.2,1111122 
DISL,ioos:station:DISL:PPTA:1,2013-08-01T06:00:00Z,30.2791,-87.5561,1.229,31.28,1111122 
DISL,ioos:station:DISL:PPTA:1,2013-08-01T06:30:00Z,30.2791,-87.5561,1.243,30.33,1111122 
DISL,ioos:station:DISL:PPTA:1,2013-08-01T07:00:00Z,30.2791,-87.5561,1.237,30.48,1111122 
DISL,ioos:station:DISL:PPTA:1,2013-08-01T07:30:00Z,30.2791,-87.5561,1.256,30.45,1111122 
DISL,ioos:station:DISL:PPTA:1,2013-08-01T08:00:00Z,30.2791,-87.5561,1.294,31.41,1111122 
DISL,ioos:station:DISL:PPTA:1,2013-08-01T08:30:00Z,30.2791,-87.5561,1.302,30.94,1111122 
DISL,ioos:station:DISL:PPTA:1,2013-08-01T09:00:00Z,30.2791,-87.5561,1.319,31.62,1111122 
DISL,ioos:station:DISL:PPTA:1,2013-08-01T09:30:00Z,30.2791,-87.5561,1.321,31.66,1111122 
DISL,ioos:station:DISL:PPTA:1,2013-08-01T10:00:00Z,30.2791,-87.5561,1.342,31.8,1111122 
DISL,ioos:station:DISL:PPTA:1,2013-08-01T10:30:00Z,30.2791,-87.5561,1.341,32.15,1111122 
DISL,ioos:station:DISL:PPTA:1,2013-08-01T11:00:00Z,30.2791,-87.5561,1.35,32.04,1111122 
DISL,ioos:station:DISL:PPTA:1,2013-08-01T11:30:00Z,30.2791,-87.5561,1.358,31.88,1111122 
DISL,ioos:station:DISL:PPTA:1,2013-08-01T12:00:00Z,30.2791,-87.5561,1.351,31.95,1111122 
DISL,ioos:station:DISL:PPTA:1,2013-08-01T12:30:00Z,30.2791,-87.5561,1.362,31.79,1111122 
DISL,ioos:station:DISL:PPTA:1,2013-08-01T13:00:00Z,30.2791,-87.5561,1.375,32.25,1111122 
DISL,ioos:station:DISL:PPTA:1,2013-08-01T13:30:00Z,30.2791,-87.5561,1.347,32.27,1111122 
DISL,ioos:station:DISL:PPTA:1,2013-08-01T14:00:00Z,30.2791,-87.5561,1.342,32.05,1111122 
DISL,ioos:station:DISL:PPTA:1,2013-08-01T14:30:00Z,30.2791,-87.5561,1.326,32.94,1111122 
DISL,ioos:station:DISL:PPTA:1,2013-08-01T15:00:00Z,30.2791,-87.5561,1.308,31.38,1111122 
DISL,ioos:station:DISL:PPTA:1,2013-08-01T15:30:00Z,30.2791,-87.5561,1.295,29.95,1111122 
DISL,ioos:station:DISL:PPTA:1,2013-08-01T16:00:00Z,30.2791,-87.5561,1.276,30.68,1111122 
DISL,ioos:station:DISL:PPTA:1,2013-08-01T16:30:00Z,30.2791,-87.5561,1.266,30.61,1111122 
DISL,ioos:station:DISL:PPTA:1,2013-08-01T17:00:00Z,30.2791,-87.5561,1.285,30.22,1111122 
DISL,ioos:station:DISL:PPTA:1,2013-08-01T17:30:00Z,30.2791,-87.5561,1.276,25.59,1111122 
DISL,ioos:station:DISL:PPTA:1,2013-08-01T18:00:00Z,30.2791,-87.5561,1.25,23.6,1111122 
DISL,ioos:station:DISL:PPTA:1,2013-08-01T18:30:00Z,30.2791,-87.5561,1.244,22.86,1111122 
DISL,ioos:station:DISL:PPTA:1,2013-08-01T19:00:00Z,30.2791,-87.5561,1.228,23.04,1111122 
DISL,ioos:station:DISL:PPTA:1,2013-08-01T19:30:00Z,30.2791,-87.5561,1.232,22.67,1111122 
DISL,ioos:station:DISL:PPTA:1,2013-08-01T20:00:00Z,30.2791,-87.5561,1.208,21.83,1111122 
DISL,ioos:station:DISL:PPTA:1,2013-08-01T20:30:00Z,30.2791,-87.5561,1.165,26.03,1111122 
DISL,ioos:station:DISL:PPTA:1,2013-08-01T21:00:00Z,30.2791,-87.5561,1.172,19.47,1111122 
DISL,ioos:station:DISL:PPTA:1,2013-08-01T21:30:00Z,30.2791,-87.5561,1.147,22.18,1111122 
DISL,ioos:station:DISL:PPTA:1,2013-08-01T22:00:00Z,30.2791,-87.5561,1.194,17.08,1111122 
DISL,ioos:station:DISL:PPTA:1,2013-08-01T22:30:00Z,30.2791,-87.5561,1.141,18.34,1111122 
DISL,ioos:station:DISL:PPTA:1,2013-08-01T23:00:00Z,30.2791,-87.5561,1.138,16.72,1111122 
DISL,ioos:station:DISL:PPTA:1,2013-08-01T23:30:00Z,30.2791,-87.5561,1.133,17.15,1111122 
DISL,ioos:station:DISL:PPTA:1,2013-08-02T00:00:00Z,30.2791,-87.5561,1.157,15.54,1111122 
DISL,ioos:station:DISL:PPTA:1,2013-08-02T00:30:00Z,30.2791,-87.5561,1.141,16.93,1111122 
DISL,ioos:station:DISL:PPTA:1,2013-08-02T01:00:00Z,30.2791,-87.5561,1.129,17.56,1111122 
DISL,ioos:station:DISL:PPTA:1,2013-08-02T01:30:00Z,30.2791,-87.5561,1.16,16.83,1111122 
DISL,ioos:station:DISL:PPTA:1,2013-08-02T02:00:00Z,30.2791,-87.5561,1.154,14.63,1111122 
DISL,ioos:station:DISL:PPTA:1,2013-08-02T02:30:00Z,30.2791,-87.5561,1.172,20.93,1111122 
DISL,ioos:station:DISL:PPTA:1,2013-08-02T03:00:00Z,30.2791,-87.5561,1.139,16.64,1111122 
DISL,ioos:station:DISL:PPTA:1,2013-08-02T03:30:00Z,30.2791,-87.5561,1.151,15.48,1111122 
DISL,ioos:station:DISL:PPTA:1,2013-08-02T04:00:00Z,30.2791,-87.5561,1.18,16.52,1111122 
DISL,ioos:station:DISL:PPTA:1,2013-08-02T04:30:00Z,30.2791,-87.5561,1.163,19.14,1111122 
DISL,ioos:station:DISL:PPTA:1,2013-08-02T05:00:00Z,30.2791,-87.5561,1.168,24.52,1111122 
DISL,ioos:station:DISL:PPTA:1,2013-08-02T05:30:00Z,30.2791,-87.5561,1.175,30.67,1111122 
DISL,ioos:station:DISL:PPTA:1,2013-08-02T06:00:00Z,30.2791,-87.5561,1.212,31.52,1111122 
DISL,ioos:station:DISL:PPTA:1,2013-08-02T06:30:00Z,30.2791,-87.5561,1.235,32.88,1111122 
DISL,ioos:station:DISL:PPTA:1,2013-08-02T07:00:00Z,30.2791,-87.5561,1.223,33.04,1111122 
DISL,ioos:station:DISL:PPTA:1,2013-08-02T07:30:00Z,30.2791,-87.5561,1.262,32.97,1111122 
DISL,ioos:station:DISL:PPTA:1,2013-08-02T08:00:00Z,30.2791,-87.5561,1.295,33.85,1111122 
DISL,ioos:station:DISL:PPTA:1,2013-08-02T08:30:00Z,30.2791,-87.5561,1.264,33.49,1111122 
DISL,ioos:station:DISL:PPTA:1,2013-08-02T09:00:00Z,30.2791,-87.5561,1.298,32.96,1111122 
DISL,ioos:station:DISL:PPTA:1,2013-08-02T09:30:00Z,30.2791,-87.5561,1.321,33.23,1111122 
DISL,ioos:station:DISL:PPTA:1,2013-08-02T10:00:00Z,30.2791,-87.5561,1.304,32.9,1111122 
DISL,ioos:station:DISL:PPTA:1,2013-08-02T10:30:00Z,30.2791,-87.5561,1.342,33.02,1111122 
DISL,ioos:station:DISL:PPTA:1,2013-08-02T11:00:00Z,30.2791,-87.5561,1.346,32.73,1111122 
DISL,ioos:station:DISL:PPTA:1,2013-08-02T11:30:00Z,30.2791,-87.5561,1.364,32.37,1111122 
DISL,ioos:station:DISL:PPTA:1,2013-08-02T12:00:00Z,30.2791,-87.5561,1.357,32.2,1111122 
DISL,ioos:station:DISL:PPTA:1,2013-08-02T12:30:00Z,30.2791,-87.5561,1.388,31.03,1111122 
DISL,ioos:station:DISL:PPTA:1,2013-08-02T13:00:00Z,30.2791,-87.5561,1.371,31.9,1111122 
DISL,ioos:station:DISL:PPTA:1,2013-08-02T13:30:00Z,30.2791,-87.5561,1.373,31.38,1111122 
DISL,ioos:station:DISL:PPTA:1,2013-08-02T14:00:00Z,30.2791,-87.5561,1.365,31.33,1111122 
DISL,ioos:station:DISL:PPTA:1,2013-08-02T14:30:00Z,30.2791,-87.5561,1.372,31.53,1111122 
DISL,ioos:station:DISL:PPTA:1,2013-08-02T15:00:00Z,30.2791,-87.5561,1.361,31.26,1111122 
DISL,ioos:station:DISL:PPTA:1,2013-08-02T15:30:00Z,30.2791,-87.5561,1.346,30.93,1111122 
DISL,ioos:station:DISL:PPTA:1,2013-08-02T16:00:00Z,30.2791,-87.5561,1.333,30.5,1111122 
DISL,ioos:station:DISL:PPTA:1,2013-08-02T16:30:00Z,30.2791,-87.5561,1.317,29.04,1111122 
DISL,ioos:station:DISL:PPTA:1,2013-08-02T17:00:00Z,30.2791,-87.5561,1.29,25.64,1111122 
DISL,ioos:station:DISL:PPTA:1,2013-08-02T17:30:00Z,30.2791,-87.5561,1.291,23.26,1111122 
DISL,ioos:station:DISL:PPTA:1,2013-08-02T18:00:00Z,30.2791,-87.5561,1.277,22.48,1111122 
DISL,ioos:station:DISL:PPTA:1,2013-08-02T18:30:00Z,30.2791,-87.5561,1.258,21.09,1111122 
DISL,ioos:station:DISL:PPTA:1,2013-08-02T19:00:00Z,30.2791,-87.5561,1.239,21.01,1111122 
DISL,ioos:station:DISL:PPTA:1,2013-08-02T19:30:00Z,30.2791,-87.5561,1.23,20.36,1111122 
DISL,ioos:station:DISL:PPTA:1,2013-08-02T20:00:00Z,30.2791,-87.5561,1.215,19.48,1111122 
DISL,ioos:station:DISL:PPTA:1,2013-08-02T20:30:00Z,30.2791,-87.5561,1.191,18.78,1111122 
DISL,ioos:station:DISL:PPTA:1,2013-08-02T21:00:00Z,30.2791,-87.5561,1.177,18.59,1111122 
DISL,ioos:station:DISL:PPTA:1,2013-08-02T21:30:00Z,30.2791,-87.5561,1.18,16.89,1111122 
DISL,ioos:station:DISL:PPTA:1,2013-08-02T22:00:00Z,30.2791,-87.5561,1.161,16.62,1111122 
DISL,ioos:station:DISL:PPTA:1,2013-08-02T22:30:00Z,30.2791,-87.5561,1.162,15.81,1111122 
DISL,ioos:station:DISL:PPTA:1,2013-08-02T23:00:00Z,30.2791,-87.5561,1.156,14.98,1111122 
DISL,ioos:station:DISL:PPTA:1,2013-08-02T23:30:00Z,30.2791,-87.5561,1.146,14.09,1111122 
DISL,ioos:station:DISL:PPTA:1,2013-08-03T00:00:00Z,30.2791,-87.5561,1.144,14.37,1111122 
DISL,ioos:station:DISL:PPTA:1,2013-08-03T00:30:00Z,30.2791,-87.5561,1.128,13.92,1111122 
DISL,ioos:station:DISL:PPTA:1,2013-08-03T01:00:00Z,30.2791,-87.5561,1.147,13.79,1111122 
DISL,ioos:station:DISL:PPTA:1,2013-08-03T01:30:00Z,30.2791,-87.5561,1.145,13.7,1111122 
DISL,ioos:station:DISL:PPTA:1,2013-08-03T02:00:00Z,30.2791,-87.5561,1.159,18.33,1111122 
DISL,ioos:station:DISL:PPTA:1,2013-08-03T02:30:00Z,30.2791,-87.5561,1.161,16.07,1111122 
DISL,ioos:station:DISL:PPTA:1,2013-08-03T03:00:00Z,30.2791,-87.5561,1.154,13.54,1111122 
DISL,ioos:station:DISL:PPTA:1,2013-08-03T03:30:00Z,30.2791,-87.5561,1.152,14.76,1111122 
DISL,ioos:station:DISL:PPTA:1,2013-08-03T04:00:00Z,30.2791,-87.5561,1.169,16.61,1111122 
DISL,ioos:station:DISL:PPTA:1,2013-08-03T04:30:00Z,30.2791,-87.5561,1.172,16.38,1111122 
DISL,ioos:station:DISL:PPTA:1,2013-08-03T05:00:00Z,30.2791,-87.5561,1.159,21.0,1111122 
DISL,ioos:station:DISL:PPTA:1,2013-08-03T05:30:00Z,30.2791,-87.5561,1.154,24.78,1111122 
DISL,ioos:station:DISL:PPTA:1,2013-08-03T06:00:00Z,30.2791,-87.5561,1.163,29.34,1111122 
DISL,ioos:station:DISL:PPTA:1,2013-08-03T06:30:00Z,30.2791,-87.5561,1.183,29.76,1111122 
DISL,ioos:station:DISL:PPTA:1,2013-08-03T07:00:00Z,30.2791,-87.5561,1.205,29.84,1111122 
DISL,ioos:station:DISL:PPTA:1,2013-08-03T07:30:00Z,30.2791,-87.5561,1.231,29.31,1111122 
DISL,ioos:station:DISL:PPTA:1,2013-08-03T08:00:00Z,30.2791,-87.5561,1.245,29.41,1111122 
DISL,ioos:station:DISL:PPTA:1,2013-08-03T08:30:00Z,30.2791,-87.5561,1.265,28.91,1111122 
DISL,ioos:station:DISL:PPTA:1,2013-08-03T09:00:00Z,30.2791,-87.5561,1.283,29.05,1111122 
DISL,ioos:station:DISL:PPTA:1,2013-08-03T09:30:00Z,30.2791,-87.5561,1.294,29.06,1111122 
DISL,ioos:station:DISL:PPTA:1,2013-08-03T10:00:00Z,30.2791,-87.5561,1.314,29.04,1111122 
DISL,ioos:station:DISL:PPTA:1,2013-08-03T10:30:00Z,30.2791,-87.5561,1.322,29.11,1111122 
DISL,ioos:station:DISL:PPTA:1,2013-08-03T11:00:00Z,30.2791,-87.5561,1.347,29.16,1111122 
DISL,ioos:station:DISL:PPTA:1,2013-08-03T11:30:00Z,30.2791,-87.5561,1.351,29.41,1111122 
DISL,ioos:station:DISL:PPTA:1,2013-08-03T12:00:00Z,30.2791,-87.5561,1.356,29.23,1111122 
DISL,ioos:station:DISL:PPTA:1,2013-08-03T12:30:00Z,30.2791,-87.5561,1.371,29.37,1111122 
DISL,ioos:station:DISL:PPTA:1,2013-08-03T13:00:00Z,30.2791,-87.5561,1.374,29.7,1111122 
DISL,ioos:station:DISL:PPTA:1,2013-08-03T13:30:00Z,30.2791,-87.5561,1.37,29.69,1111122 
DISL,ioos:station:DISL:PPTA:1,2013-08-03T14:00:00Z,30.2791,-87.5561,1.375,29.95,1111122 
DISL,ioos:station:DISL:PPTA:1,2013-08-03T14:30:00Z,30.2791,-87.5561,1.362,30.28,1111122 
DISL,ioos:station:DISL:PPTA:1,2013-08-03T15:00:00Z,30.2791,-87.5561,1.359,30.61,1111122 
DISL,ioos:station:DISL:PPTA:1,2013-08-03T15:30:00Z,30.2791,-87.5561,1.348,30.92,1111122 
DISL,ioos:station:DISL:PPTA:1,2013-08-03T16:00:00Z,30.2791,-87.5561,1.324,30.61,1111122 
DISL,ioos:station:DISL:PPTA:1,2013-08-03T16:30:00Z,30.2791,-87.5561,1.31,27.59,1111122 
DISL,ioos:station:DISL:PPTA:1,2013-08-03T17:00:00Z,30.2791,-87.5561,1.3,26.72,1111122 
DISL,ioos:station:DISL:PPTA:1,2013-08-03T17:30:00Z,30.2791,-87.5561,1.276,28.74,1111122 
DISL,ioos:station:DISL:PPTA:1,2013-08-03T18:00:00Z,30.2791,-87.5561,1.273,24.48,1111122 
DISL,ioos:station:DISL:PPTA:1,2013-08-03T18:30:00Z,30.2791,-87.5561,1.249,22.65,1111122 
DISL,ioos:station:DISL:PPTA:1,2013-08-03T19:00:00Z,30.2791,-87.5561,1.223,21.71,1111122 
DISL,ioos:station:DISL:PPTA:1,2013-08-03T19:30:00Z,30.2791,-87.5561,1.202,23.66,1111122 
DISL,ioos:station:DISL:PPTA:1,2013-08-03T20:00:00Z,30.2791,-87.5561,1.191,22.91,1111122 
DISL,ioos:station:DISL:PPTA:1,2013-08-03T20:30:00Z,30.2791,-87.5561,1.156,21.5,1111122 
DISL,ioos:station:DISL:PPTA:1,2013-08-03T21:00:00Z,30.2791,-87.5561,1.139,19.14,1111122 
DISL,ioos:station:DISL:PPTA:1,2013-08-03T21:30:00Z,30.2791,-87.5561,1.137,18.02,1111122 
DISL,ioos:station:DISL:PPTA:1,2013-08-03T22:00:00Z,30.2791,-87.5561,1.122,17.89,1111122 
DISL,ioos:station:DISL:PPTA:1,2013-08-03T22:30:00Z,30.2791,-87.5561,1.12,17.31,1111122 
DISL,ioos:station:DISL:PPTA:1,2013-08-03T23:00:00Z,30.2791,-87.5561,1.104,18.74,1111122 
DISL,ioos:station:DISL:PPTA:1,2013-08-03T23:30:00Z,30.2791,-87.5561,1.095,18.19,1111122 
DISL,ioos:station:DISL:PPTA:1,2013-08-04T00:00:00Z,30.2791,-87.5561,1.079,19.3,1111122 
DISL,ioos:station:DISL:PPTA:1,2013-08-04T00:30:00Z,30.2791,-87.5561,1.086,21.17,1111122 
DISL,ioos:station:DISL:PPTA:1,2013-08-04T01:00:00Z,30.2791,-87.5561,1.092,21.32,1111122 
DISL,ioos:station:DISL:PPTA:1,2013-08-04T01:30:00Z,30.2791,-87.5561,1.088,16.04,1111122 
DISL,ioos:station:DISL:PPTA:1,2013-08-04T02:00:00Z,30.2791,-87.5561,1.081,20.55,1111122 
DISL,ioos:station:DISL:PPTA:1,2013-08-04T02:30:00Z,30.2791,-87.5561,1.098,17.03,1111122 
DISL,ioos:station:DISL:PPTA:1,2013-08-04T03:00:00Z,30.2791,-87.5561,1.099,17.0,1111122 
DISL,ioos:station:DISL:PPTA:1,2013-08-04T03:30:00Z,30.2791,-87.5561,1.1,21.3,1111122 
DISL,ioos:station:DISL:PPTA:1,2013-08-04T04:00:00Z,30.2791,-87.5561,1.111,19.86,1111122 
DISL,ioos:station:DISL:PPTA:1,2013-08-04T04:30:00Z,30.2791,-87.5561,1.106,19.24,1111122 
DISL,ioos:station:DISL:PPTA:1,2013-08-04T05:00:00Z,30.2791,-87.5561,1.099,18.56,1111122 
DISL,ioos:station:DISL:PPTA:1,2013-08-04T05:30:00Z,30.2791,-87.5561,1.092,19.73,1111122 
DISL,ioos:station:DISL:PPTA:1,2013-08-04T06:00:00Z,30.2791,-87.5561,1.09,18.77,1111122 
DISL,ioos:station:DISL:PPTA:1,2013-08-04T06:30:00Z,30.2791,-87.5561,1.095,24.36,1111122 
DISL,ioos:station:DISL:PPTA:1,2013-08-04T07:00:00Z,30.2791,-87.5561,1.117,25.75,1111122 
DISL,ioos:station:DISL:PPTA:1,2013-08-04T07:30:00Z,30.2791,-87.5561,1.107,30.33,1111122 
DISL,ioos:station:DISL:PPTA:1,2013-08-04T08:00:00Z,30.2791,-87.5561,1.141,31.97,1111122 
DISL,ioos:station:DISL:PPTA:1,2013-08-04T08:30:00Z,30.2791,-87.5561,1.179,32.09,1111122 
DISL,ioos:station:DISL:PPTA:1,2013-08-04T09:00:00Z,30.2791,-87.5561,1.192,31.64,1111122 
DISL,ioos:station:DISL:PPTA:1,2013-08-04T09:30:00Z,30.2791,-87.5561,1.201,31.9,1111122 
DISL,ioos:station:DISL:PPTA:1,2013-08-04T10:00:00Z,30.2791,-87.5561,1.207,32.09,1111122 
DISL,ioos:station:DISL:PPTA:1,2013-08-04T10:30:00Z,30.2791,-87.5561,1.232,31.39,1111122 
DISL,ioos:station:DISL:PPTA:1,2013-08-04T11:00:00Z,30.2791,-87.5561,1.246,31.46,1111122 
DISL,ioos:station:DISL:PPTA:1,2013-08-04T11:30:00Z,30.2791,-87.5561,1.257,32.03,1111122 
DISL,ioos:station:DISL:PPTA:1,2013-08-04T12:00:00Z,30.2791,-87.5561,1.271,32.24,1111122 
DISL,ioos:station:DISL:PPTA:1,2013-08-04T12:30:00Z,30.2791,-87.5561,1.271,31.87,1111122 
DISL,ioos:station:DISL:PPTA:1,2013-08-04T13:00:00Z,30.2791,-87.5561,1.283,32.1,1111122 
DISL,ioos:station:DISL:PPTA:1,2013-08-04T13:30:00Z,30.2791,-87.5561,1.301,32.57,1111122 
DISL,ioos:station:DISL:PPTA:1,2013-08-04T14:00:00Z,30.2791,-87.5561,1.292,32.91,1111122 
DISL,ioos:station:DISL:PPTA:1,2013-08-04T14:30:00Z,30.2791,-87.5561,1.298,32.32,1111122 
DISL,ioos:station:DISL:PPTA:1,2013-08-04T15:00:00Z,30.2791,-87.5561,1.296,32.71,1111122 
DISL,ioos:station:DISL:PPTA:1,2013-08-04T15:30:00Z,30.2791,-87.5561,1.296,32.68,1111122 
DISL,ioos:station:DISL:PPTA:1,2013-08-04T16:00:00Z,30.2791,-87.5561,1.29,32.97,1111122 
DISL,ioos:station:DISL:PPTA:1,2013-08-04T16:30:00Z,30.2791,-87.5561,1.278,32.57,1111122 
DISL,ioos:station:DISL:PPTA:1,2013-08-04T17:00:00Z,30.2791,-87.5561,1.261,32.86,1111122 
DISL,ioos:station:DISL:PPTA:1,2013-08-04T17:30:00Z,30.2791,-87.5561,1.228,30.95,1111122 
DISL,ioos:station:DISL:PPTA:1,2013-08-04T18:00:00Z,30.2791,-87.5561,1.227,29.12,1111122 
DISL,ioos:station:DISL:PPTA:1,2013-08-04T18:30:00Z,30.2791,-87.5561,1.201,30.38,1111122 
DISL,ioos:station:DISL:PPTA:1,2013-08-04T19:00:00Z,30.2791,-87.5561,1.189,30.92,1111122 
DISL,ioos:station:DISL:PPTA:1,2013-08-04T19:30:00Z,30.2791,-87.5561,1.168,30.08,1111122 
DISL,ioos:station:DISL:PPTA:1,2013-08-04T20:00:00Z,30.2791,-87.5561,1.164,25.73,1111122 
DISL,ioos:station:DISL:PPTA:1,2013-08-04T20:30:00Z,30.2791,-87.5561,1.147,26.35,1111122 
DISL,ioos:station:DISL:PPTA:1,2013-08-04T21:00:00Z,30.2791,-87.5561,1.138,23.13,1111122 
DISL,ioos:station:DISL:PPTA:1,2013-08-04T21:30:00Z,30.2791,-87.5561,1.13,22.35,1111122 
DISL,ioos:station:DISL:PPTA:1,2013-08-04T22:00:00Z,30.2791,-87.5561,1.104,22.09,1111122 
DISL,ioos:station:DISL:PPTA:1,2013-08-04T22:30:00Z,30.2791,-87.5561,1.108,20.2,1111122 
DISL,ioos:station:DISL:PPTA:1,2013-08-04T23:00:00Z,30.2791,-87.5561,1.108,20.09,1111122 
DISL,ioos:station:DISL:PPTA:1,2013-08-04T23:30:00Z,30.2791,-87.5561,1.107,18.31,1111122 
DISL,ioos:station:DISL:PPTA:1,2013-08-05T00:00:00Z,30.2791,-87.5561,1.096,19.04,1111122 
DISL,ioos:station:DISL:PPTA:1,2013-08-05T00:30:00Z,30.2791,-87.5561,1.091,19.31,1111122 
DISL,ioos:station:DISL:PPTA:1,2013-08-05T01:00:00Z,30.2791,-87.5561,1.096,16.74,1111122 
DISL,ioos:station:DISL:PPTA:1,2013-08-05T01:30:00Z,30.2791,-87.5561,1.099,16.7,1111122 
DISL,ioos:station:DISL:PPTA:1,2013-08-05T02:00:00Z,30.2791,-87.5561,1.091,17.67,1111122 
DISL,ioos:station:DISL:PPTA:1,2013-08-05T02:30:00Z,30.2791,-87.5561,1.093,18.03,1111122 
DISL,ioos:station:DISL:PPTA:1,2013-08-05T03:00:00Z,30.2791,-87.5561,1.098,17.22,1111122 
DISL,ioos:station:DISL:PPTA:1,2013-08-05T03:30:00Z,30.2791,-87.5561,1.094,18.29,1111122 
DISL,ioos:station:DISL:PPTA:1,2013-08-05T04:00:00Z,30.2791,-87.5561,1.097,19.09,1111122 
DISL,ioos:station:DISL:PPTA:1,2013-08-05T04:30:00Z,30.2791,-87.5561,1.089,17.16,1111122 
DISL,ioos:station:DISL:PPTA:1,2013-08-05T05:00:00Z,30.2791,-87.5561,1.093,20.94,1111122 
DISL,ioos:station:DISL:PPTA:1,2013-08-05T05:30:00Z,30.2791,-87.5561,1.101,21.11,1111122 
DISL,ioos:station:DISL:PPTA:1,2013-08-05T06:00:00Z,30.2791,-87.5561,1.096,25.68,1111122 
DISL,ioos:station:DISL:PPTA:1,2013-08-05T06:30:00Z,30.2791,-87.5561,1.132,30.08,1111122 
DISL,ioos:station:DISL:PPTA:1,2013-08-05T07:00:00Z,30.2791,-87.5561,1.104,32.41,1111122 
DISL,ioos:station:DISL:PPTA:1,2013-08-05T07:30:00Z,30.2791,-87.5561,1.127,32.86,1111122 
DISL,ioos:station:DISL:PPTA:1,2013-08-05T08:00:00Z,30.2791,-87.5561,1.14,33.64,1111122 
DISL,ioos:station:DISL:PPTA:1,2013-08-05T08:30:00Z,30.2791,-87.5561,1.12,32.85,1111122 
DISL,ioos:station:DISL:PPTA:1,2013-08-05T09:00:00Z,30.2791,-87.5561,1.179,33.79,1111122 
DISL,ioos:station:DISL:PPTA:1,2013-08-05T09:30:00Z,30.2791,-87.5561,1.186,33.56,1111122 
DISL,ioos:station:DISL:PPTA:1,2013-08-05T10:00:00Z,30.2791,-87.5561,1.206,33.92,1111122 
DISL,ioos:station:DISL:PPTA:1,2013-08-05T10:30:00Z,30.2791,-87.5561,1.226,34.47,1111122 
DISL,ioos:station:DISL:PPTA:1,2013-08-05T11:00:00Z,30.2791,-87.5561,1.24,34.51,1111122 
DISL,ioos:station:DISL:PPTA:1,2013-08-05T11:30:00Z,30.2791,-87.5561,1.265,34.13,1111122 
DISL,ioos:station:DISL:PPTA:1,2013-08-05T12:00:00Z,30.2791,-87.5561,1.275,34.46,1111122 
DISL,ioos:station:DISL:PPTA:1,2013-08-05T12:30:00Z,30.2791,-87.5561,1.28,34.15,1111122 
DISL,ioos:station:DISL:PPTA:1,2013-08-05T13:00:00Z,30.2791,-87.5561,1.285,33.68,1111122 
DISL,ioos:station:DISL:PPTA:1,2013-08-05T13:30:00Z,30.2791,-87.5561,1.295,34.01,1111122 
DISL,ioos:station:DISL:PPTA:1,2013-08-05T14:00:00Z,30.2791,-87.5561,1.309,34.09,1111122 
DISL,ioos:station:DISL:PPTA:1,2013-08-05T14:30:00Z,30.2791,-87.5561,1.312,34.63,1111122 
DISL,ioos:station:DISL:PPTA:1,2013-08-05T15:00:00Z,30.2791,-87.5561,1.312,34.37,1111122 
DISL,ioos:station:DISL:PPTA:1,2013-08-05T15:30:00Z,30.2791,-87.5561,1.301,34.21,1111122 
DISL,ioos:station:DISL:PPTA:1,2013-08-05T16:00:00Z,30.2791,-87.5561,1.285,34.46,1111122 
DISL,ioos:station:DISL:PPTA:1,2013-08-05T16:30:00Z,30.2791,-87.5561,1.281,34.21,1111122 
DISL,ioos:station:DISL:PPTA:1,2013-08-05T17:00:00Z,30.2791,-87.5561,1.269,34.11,1111122 
DISL,ioos:station:DISL:PPTA:1,2013-08-05T17:30:00Z,30.2791,-87.5561,1.244,33.4,1111122 
DISL,ioos:station:DISL:PPTA:1,2013-08-05T18:00:00Z,30.2791,-87.5561,1.235,31.73,1111122 
DISL,ioos:station:DISL:PPTA:1,2013-08-05T18:30:00Z,30.2791,-87.5561,1.2,31.36,1111122 
DISL,ioos:station:DISL:PPTA:1,2013-08-05T19:00:00Z,30.2791,-87.5561,1.184,31.27,1111122 
DISL,ioos:station:DISL:PPTA:1,2013-08-05T19:30:00Z,30.2791,-87.5561,1.167,28.07,1111122 
DISL,ioos:station:DISL:PPTA:1,2013-08-05T20:00:00Z,30.2791,-87.5561,1.154,24.48,1111122 
DISL,ioos:station:DISL:PPTA:1,2013-08-05T20:30:00Z,30.2791,-87.5561,1.144,24.11,1111122 
DISL,ioos:station:DISL:PPTA:1,2013-08-05T21:00:00Z,30.2791,-87.5561,1.132,22.66,1111122 
DISL,ioos:station:DISL:PPTA:1,2013-08-05T21:30:00Z,30.2791,-87.5561,1.131,21.62,1111122 
DISL,ioos:station:DISL:PPTA:1,2013-08-05T22:00:00Z,30.2791,-87.5561,1.106,25.73,1111122 
DISL,ioos:station:DISL:PPTA:1,2013-08-05T22:30:00Z,30.2791,-87.5561,1.089,21.36,1111122 
DISL,ioos:station:DISL:PPTA:1,2013-08-05T23:00:00Z,30.2791,-87.5561,1.081,23.79,1111122 
DISL,ioos:station:DISL:PPTA:1,2013-08-05T23:30:00Z,30.2791,-87.5561,1.083,20.17,1111122 
DISL,ioos:station:DISL:PPTA:1,2013-08-06T00:00:00Z,30.2791,-87.5561,1.079,18.68,1111122 
DISL,ioos:station:DISL:PPTA:1,2013-08-06T00:30:00Z,30.2791,-87.5561,1.077,18.34,1111122 
DISL,ioos:station:DISL:PPTA:1,2013-08-06T01:00:00Z,30.2791,-87.5561,1.064,18.36,1111122 
DISL,ioos:station:DISL:PPTA:1,2013-08-06T01:30:00Z,30.2791,-87.5561,1.035,18.55,1111122 
DISL,ioos:station:DISL:PPTA:1,2013-08-06T02:00:00Z,30.2791,-87.5561,1.057,18.2,1111122 
DISL,ioos:station:DISL:PPTA:1,2013-08-06T02:30:00Z,30.2791,-87.5561,1.078,16.18,1111122 
DISL,ioos:station:DISL:PPTA:1,2013-08-06T03:00:00Z,30.2791,-87.5561,1.068,16.14,1111122 
DISL,ioos:station:DISL:PPTA:1,2013-08-06T03:30:00Z,30.2791,-87.5561,1.07,16.38,1111122 
DISL,ioos:station:DISL:PPTA:1,2013-08-06T04:00:00Z,30.2791,-87.5561,1.063,15.51,1111122 
DISL,ioos:station:DISL:PPTA:1,2013-08-06T04:30:00Z,30.2791,-87.5561,1.059,16.54,1111122 
DISL,ioos:station:DISL:PPTA:1,2013-08-06T05:00:00Z,30.2791,-87.5561,1.076,20.47,1111122 
DISL,ioos:station:DISL:PPTA:1,2013-08-06T05:30:00Z,30.2791,-87.5561,1.068,18.93,1111122 
DISL,ioos:station:DISL:PPTA:1,2013-08-06T06:00:00Z,30.2791,-87.5561,1.065,22.7,1111122 
DISL,ioos:station:DISL:PPTA:1,2013-08-06T06:30:00Z,30.2791,-87.5561,1.076,19.74,1111122 
DISL,ioos:station:DISL:PPTA:1,2013-08-06T07:00:00Z,30.2791,-87.5561,1.081,24.68,1111122 
DISL,ioos:station:DISL:PPTA:1,2013-08-06T07:30:00Z,30.2791,-87.5561,1.088,31.3,1111122 
DISL,ioos:station:DISL:PPTA:1,2013-08-06T08:00:00Z,30.2791,-87.5561,1.074,31.62,1111122 
DISL,ioos:station:DISL:PPTA:1,2013-08-06T08:30:00Z,30.2791,-87.5561,1.097,33.21,1111122 
DISL,ioos:station:DISL:PPTA:1,2013-08-06T09:00:00Z,30.2791,-87.5561,1.103,32.94,1111122 
DISL,ioos:station:DISL:PPTA:1,2013-08-06T09:30:00Z,30.2791,-87.5561,1.117,33.28,1111122 
DISL,ioos:station:DISL:PPTA:1,2013-08-06T10:00:00Z,30.2791,-87.5561,1.155,33.42,1111122 
DISL,ioos:station:DISL:PPTA:1,2013-08-06T10:30:00Z,30.2791,-87.5561,1.171,33.72,1111122 
DISL,ioos:station:DISL:PPTA:1,2013-08-06T11:00:00Z,30.2791,-87.5561,1.186,33.83,1111122 
DISL,ioos:station:DISL:PPTA:1,2013-08-06T11:30:00Z,30.2791,-87.5561,1.215,34.14,1111122 
DISL,ioos:station:DISL:PPTA:1,2013-08-06T12:00:00Z,30.2791,-87.5561,1.232,33.77,1111122 
DISL,ioos:station:DISL:PPTA:1,2013-08-06T12:30:00Z,30.2791,-87.5561,1.25,34.09,1111122 
DISL,ioos:station:DISL:PPTA:1,2013-08-06T13:00:00Z,30.2791,-87.5561,1.262,34.02,1111122 
DISL,ioos:station:DISL:PPTA:1,2013-08-06T13:30:00Z,30.2791,-87.5561,1.273,34.14,1111122 
DISL,ioos:station:DISL:PPTA:1,2013-08-06T14:00:00Z,30.2791,-87.5561,1.274,33.96,1111122 